{"data":{"norad_id":62560,"epoch":"2026-09-21T16:32:32.425152Z","epoch_age_seconds":68591,"freshness":"FRESH","line1":"1 62560U 25006G   26264.68926418  .00164772  00000+0  12617-2 0  9991","line2":"2 62560  43.0028  38.8755 0002562 300.8909  59.1707 15.70850608 97429","mean_motion":15.70850608,"eccentricity":0.0002562,"inclination_deg":43.0028,"raan_deg":38.8755,"arg_perigee_deg":300.8909,"mean_anomaly_deg":59.1707,"bstar":0.0012617,"rev_number":9742,"period_min":91.670079424892,"perigee_km":354.73933712354,"apogee_km":358.19014705619,"semimajor_km":6734.6017420899,"source":"CELESTRAK","updated_at":"2026-09-22T09:00:49.627121Z"}}